Regional Weather Roundup
Issued by NWS

Home | Current Version | Previous Version | Graphics & Text | Print | Product List | Glossary On
Versions: 1 2 3 4 5 6 7 8 9 10 11 12 13 14 15 16 17 18 19 20 21 22 23 24 25 26 27 28 29 30 31 32 33 34 35 36 37 38 39 40 41 42 43 44 45 46 47 48 49 50
000
ASUS43 KLMK 131610
RWRKY
KENTUCKY REGIONAL WEATHER ROUNDUP
NATIONAL WEATHER SERVICE LOUISVILLE KY
1100 AM EST WED DEC 13 2017

NOTE "FAIR" INDICATES FEW OR NO CLOUDS BELOW 12,000 FEET
WITH NO SIGNIFICANT WEATHER AND/OR OBSTRUCTIONS TO VISIBILITY.

KYZ001>023-026-027-061>063-070>075-131700-
WESTERN AND SOUTH CENTRAL KENTUCKY

CITY           SKY/WX    TMP DP  RH WIND       PRES   REMARKS
PADUCAH        SUNNY     41  14  33 SW14G28   29.84F
HENDERSON      SUNNY     37  17  44 S18G26    29.81F WCI  27
OWENSBORO      SUNNY     37  16  42 S18       29.83F WCI  27
HOPKINSVILLE   SUNNY     39  13  35 S14       29.90F WCI  31
BOWLING GREEN  SUNNY     38  13  35 S13       29.93F WCI  30
GLASGOW        SUNNY     35  11  38 S13G18    29.92F WCI  26
$$

KYZ024-025-028>034-038-045-046-053-131700-
NORTH CENTRAL KENTUCKY

CITY           SKY/WX    TMP DP  RH WIND       PRES   REMARKS
LOUISVILLE/SDF CLOUDY    34   9  35 S13       29.85F WCI  25
LOUISVILLE/LOU PTSUNNY   32  11  41 S12       29.87F WCI  23
FORT KNOX      CLOUDY    33   9  36 S17G25    29.84F WCI  23
$$

KYZ035>037-039>044-047>052-055>060-089>105-131700-
NORTHEAST KENTUCKY

CITY           SKY/WX    TMP DP  RH WIND       PRES   REMARKS
LEXINGTON      SUNNY     31  10  41 S16G25    29.87F WCI  20
COVINGTON      CLOUDY    27  10  49 S10       29.81F WCI  17
FRANKFORT      PTSUNNY   32   8  36 S16G23    29.85F WCI  21
$$

KYZ054-064>069-076>088-106>120-131700-
SOUTHEAST KENTUCKY

CITY           SKY/WX    TMP DP  RH WIND       PRES   REMARKS
JACKSON        SUNNY     29  10  45 VRB6      29.90F WCI  23
LONDON         SUNNY     31   3  30 SW12      29.93F WCI  22
SOMERSET       SUNNY     32   9  37 S12       29.95F WCI  23
MIDDLESBORO    SUNNY     31   9  39 S10       29.97F WCI  23
MONTICELLO     SUNNY     35   7  31 S10G18    29.95F WCI  27
$$




USA.gov is the U.S. government's official web portal to all federal, state and local government web resources and services.